Regional Weather Roundup
Issued by NWS

Home | Current Version | Previous Version | Graphics & Text | Print | Product List | Glossary On
Versions: 1 2 3 4 5 6 7 8 9 10 11 12 13 14 15 16 17 18 19 20 21 22 23 24 25 26 27 28 29 30 31 32 33 34 35 36 37 38 39 40 41 42 43 44 45 46 47 48 49 50
000
ASUS43 KFSD 261302
RWRSD

WEATHER ROUNDUP FOR SOUTH DAKOTA
NATIONAL WEATHER SERVICE SIOUX FALLS SD
800 AM CDT THU MAY 26 2016

NOTE: "FAIR" INDICATES FEW OR NO CLOUDS BELOW 12,000 FEET WITH NO
SIGNIFICANT WEATHER AND/OR OBSTRUCTIONS TO VISIBILITY.


SDZ001>005-009-010-012>017-261400-
NORTHWEST AND NORTH CENTRAL SOUTH DAKOTA

CITY           SKY/WX    TMP DP  RH WIND       PRES   REMARKS
BUFFALO          N/A     47  42  83 SW7       29.83R
FAITH            N/A     54  44  69 W8        29.87R
MOBRIDGE       SUNNY     54  47  77 CALM      29.83R
$$

SDZ012>016-024>037-041>051-057-063-072>074-261400-
SOUTHWEST AND SOUTH CENTRAL SOUTH DAKOTA

CITY           SKY/WX    TMP DP  RH WIND       PRES   REMARKS
RAPID CTY ARPT SUNNY     52  46  80 N9        29.91R
PIERRE         SUNNY     54  50  86 CALM      29.86R
CUSTER         SUNNY     47  39  74 CALM      29.97S
PHILIP         SUNNY     51  48  89 CALM      29.89R
PINE RIDGE     SUNNY     48  43  82 CALM      29.91S
WINNER         FAIR      57  51  80 SW3       29.88R
$$

SDZ004>011-016>023-039-040-261400-
NORTHEAST SOUTH DAKOTA

CITY           SKY/WX    TMP DP  RH WIND       PRES   REMARKS
ABERDEEN       SUNNY     58  49  72 CALM      29.85S
WATERTOWN      SUNNY     59  50  72 W9        29.84S
BROOKINGS      SUNNY     59  51  75 NW8       29.85S
SISSETON         N/A     61  51  70 NW10      29.79R
$$

SDZ017-020-022-023-036>040-048>070-261400-
SOUTHEAST SOUTH DAKOTA

CITY           SKY/WX    TMP DP  RH WIND       PRES   REMARKS
SIOUX FALLS    MOSUNNY   62  51  67 N9        29.86R
HURON          SUNNY     56  51  84 SW7       29.88R
MITCHELL       SUNNY     61  53  75 NW5       29.88S
YANKTON        SUNNY     61  52  72 W3        29.88S
$$

ABBREVIATIONS USED IN REMARKS
   TC - TEMPERATURE IN CELSIUS
  WCI - WIND CHILL INDEX
   HX - HEAT INDEX
  VSB - VISIBILITY




USA.gov is the U.S. government's official web portal to all federal, state and local government web resources and services.